Content
SEND FEEDBACK

Daily
Averages
Monthly
Summary
Canada

BEDFORD, QUEBEC


Home > North America > Canada > Quebec
Elevation: 174 feet     Latitude: 45 28N     Longitude: 073 45W

WEATHER
 
SELECT A DAY
Number of Records: 201,544;   Date Range: 1/1/95 - 10/24/14
 
SHARE

PRINT THIS DATA

[ ← Previous Day ]
WEATHER ALMANAC - FEBRUARY 19, 2013
[ Next Day → ]
[ °C ]   °F
Weather ElementAverageHighLow
Temperature24.4 °F32 °F (1:00 pm)12.2 °F (1:00 am)
Dewpoint14.6 °F28.4 °F (9:49 pm)1.4 °F (7:00 am)
Humidity67.2 %100 % (9:00 pm)31 % (7:00 am)
Barometer29.80 in30.15 in (2:00 am)29.61 in (11:21 pm)
Wind Speed10.1 mph20.7 mph (11:21 pm)
Wind Gust28.8 mph (11:21 pm)
Weather ElementAverage
Visibility11.5 mi
Wind DirectionESE (113.9 °)

Weather ElementTotal
Precipitation---
Heating Degree Days42.9 (Base 65)
Averaged from 32 records on February 19, 2013
WEATHER CONDITIONS BREAKOUT
WIND DIRECTION BREAKOUT
WEATHER BY HOUR - FEBRUARY 19, 2013
[ °C ]   °F
Local TimeTemperatureDewpointHumidityBarometerVisibilityWind DirectionWind SpeedGust SpeedPrecipitationEventsConditions
1:00 AM13.0 °F4.0 °F54 %30.14 in15.0 miCalm
1:00 AM12.2 °F3.2 °F67 %30.14 in15.0 miCalmPartly Cloudy
2:00 AM14.0 °F5.0 °F67 %30.15 in15.0 miCalmMostly Cloudy
3:00 AM15.8 °F5.0 °F62 %30.12 in15.0 miESE (110°)5.8 mphMostly Cloudy
4:00 AM15.8 °F3.2 °F58 %30.10 in15.0 miEast (100°)8.1 mphMostly Cloudy
6:00 AM17.6 °F5.0 °F58 %30.05 in15.0 miENE (60°)10.4 mphOvercast
7:00 AM20.0 °F2.0 °F31 %30.00 in28.0 miEast (80°)12.7 mphPartly Cloudy
7:00 AM19.4 °F1.4 °F46 %30.00 in30.0 miEast (80°)13.8 mphMostly Cloudy
8:00 AM19.4 °F6.8 °F58 %29.99 in30.0 miNNE (30°)12.7 mphMostly Cloudy
9:00 AM23.0 °F6.8 °F50 %29.95 in15.0 miNE (40°)12.7 mphOvercast
10:00 AM24.8 °F8.6 °F50 %29.90 in15.0 miNE (50°)15.0 mphMostly Cloudy
11:00 AM26.6 °F10.4 °F51 %29.86 in15.0 miNE (50°)13.8 mphOvercast
12:00 PM28.4 °F10.4 °F47 %29.78 in15.0 miNE (50°)17.3 mphOvercast
1:00 PM31.0 °F12.0 °F31 %29.75 in15.0 miNE (50°)12.7 mphOvercast
1:00 PM32.0 °F12.2 °F44 %29.75 in15.0 miNE (50°)13.8 mphOvercast
2:00 PM28.4 °F14.0 °F55 %29.70 in15.0 miNNE (30°)15.0 mphOvercast
3:00 PM28.4 °F14.0 °F55 %29.68 in15.0 miNNE (20°)16.1 mphOvercast
4:00 PM28.4 °F14.0 °F55 %29.66 in15.0 miNNE (20°)15.0 mphOvercast
4:36 PM28.4 °F15.8 °F59 %29.65 in12.0 miNorth (10°)10.4 mphSnowLight Snow
5:00 PM28.4 °F17.6 °F64 %29.65 in12.0 miNNE (20°)10.4 mphSnowLight Snow
6:00 PM28.4 °F15.8 °F59 %29.64 in15.0 miNorth (10°)9.2 mphSnowLight Snow
7:31 PM24.8 °F21.2 °F86 %29.63 in1.5 miNorth (360°)5.8 mphSnowLight Snow
7:49 PM24.8 °F21.2 °F86 %29.63 in3.0 miNNW (340°)3.5 mphSnowLight Snow
8:00 PM24.8 °F23.0 °F93 %29.63 in2.5 miNNW (340°)4.6 mphSnowLight Snow
8:38 PM24.8 °F23.0 °F93 %29.62 in1.5 miNE (40°)4.6 mphSnowLight Snow
9:00 PM24.8 °F24.8 °F100 %29.62 in1.5 miNW (310°)3.5 mphSnowLight Snow
9:34 PM26.6 °F24.8 °F93 %29.63 in1.0 miSW (220°)3.5 mphSnowLight Snow
9:49 PM28.4 °F28.4 °F100 %29.62 in1.2 miSSW (200°)9.2 mphSnowLight Snow
10:00 PM28.4 °F28.4 °F100 %29.62 in1.2 miSouth (190°)9.2 mphSnowLight Snow
10:19 PM30.2 °F28.4 °F93 %29.62 in1.0 miSSW (210°)15.0 mph24.2 mphSnowLight Snow
11:00 PM30.2 °F28.4 °F93 %29.62 in1.2 miSW (230°)18.4 mphSnowLight Snow
11:21 PM30.2 °F28.4 °F93 %29.61 in1.5 miSW (230°)20.7 mph28.8 mphSnowLight Snow
Hourly data recorded from CYUL, located miles away from Bedford, Quebec







STORIES FROM OUR PARTNERS